哨兵1B(SENTINEL 1B)

导读

SENTINEL-1B(哨兵-1B)是欧洲航天局(ESA)哥白尼地球观测计划的Sentinel-1任务卫星,于2016年4月25日发射升空。它与Sentinel-1A组网,共享太阳同步近极轨道,携带C波段合成孔径雷达,可在多种采集模式下运行,能全天候获取地球观测数据,支撑海洋监测、灾害应急、地面形变观测等应用,数据免费开放共享,为全球科研与应用提供重要支持。

基本信息
目录编号:
41456
目录名称:
SENTINEL 1B
国际标识:
2016-025A
轨道中心:
EARTH
卫星名称:
哨兵1B(SENTINEL 1B)
卫星全名:
哨兵1B(SENTINEL 1B)
卫星状态:
在轨 (已飞行3784 天)
发射日期:
2016-04-25 UTC
国别 :
(ESA)
星等 :
--
轨道信息
数据来源 国际轨道数据
星历时间: 2026-09-04T14:39:47+0800
11小时前
查看轨道信息
半长轴: 6946.738km
偏心率: 0.0011937
轨道倾角: 98.089°
近地点辐角 227.742°
升交点赤经 311.064°
平近点角 132.280°
近地点: 560.308km
远地点: 576.894km
周期: 96.035分钟
每日圈数: 14.994482
详细信息
使用方式:
暂无
2D轨道图
3D轨道图
轨道高度分析图
轨道倾角分析图
轨道综合分析图
查看轨道综合分析图
交会数据列表
事件ID 空间交会对象 最接近时刻(TCA) 交会距离 交会风险概率(CRP) 交会风险指数(CRI) 操作
CDM_260905-110504-145606-666622
2026-09-05T
11:05:59+0000
0.053 km
近距离
1.143648E-3 极高风险 0.96
CDM_260903-102004-145605-565024
2026-09-03T
10:20:53+0000
0.824 km
远距离
5.10528E-5 中风险 0.69
CDM_260906-021304-145605-591422
2026-09-06T
02:13:24+0000
2.142 km
极远距离
2.126206E-6 低风险 0.42
CDM_260907-063504-145605-576421
2026-09-07T
06:35:54+0000
2.756 km
极远距离
1.511338E-6 低风险 0.39
CDM_260906-182104-145606-748321
2026-09-06T
18:21:41+0000
2.778 km
极远距离
3.125061E-7 极低风险 0.25